Pipestone, MN

6:20 AM CST on February 23, 2017 (GMT -0600)
Pipestone Municipal

Weather History for KPQN - August, 2013

Change the Weather History Date:

Monday, August 5, 2013

  Actual Average Record
Temperature  
Mean Temperature 74 °F -  
Max Temperature 82 °F 77 °F 91 °F (2001)
Min Temperature 64 °F 58 °F 50 °F (2012)
Cooling Degree Days 9    
Growing Degree Days 24 (Base 50)    
Moisture  
Dew Point 62 °F    
Average Humidity 70    
Maximum Humidity 94    
Minimum Humidity 42    
Precipitation  
Precipitation 0.00 in - - ()
Sea Level Pressure  
Sea Level Pressure 29.91 in    
Wind  
Wind Speed 7 mph (WNW)    
Max Wind Speed 13 mph    
Max Gust Speed 17 mph    
Visibility 9 miles    
Events Rain , Thunderstorm    
Averages and records for this station are not official NWS values.
T = Trace of Precipitation, MM = Missing Value Source: NWS Daily Summary

Daily Weather History Graph

Daily Weather History Graph

Search for Another Location

Airport or City:

Trip Planner

Search our weather history database for the weather conditions in past years. The results will help you decide how hot, cold, wet, or windy it might be!

Date:

Astronomy

Aug. 05, 2013 Rise Set
Actual Time 6:18 AM CDT 8:43 PM CDT
Civil Twilight 5:45 AM CDT 9:15 PM CDT
Nautical Twilight 5:05 AM CDT 9:55 PM CDT
Astronomical Twilight 4:19 AM CDT 10:41 PM CDT
Moon 5:14 AM CDT (8/5) 7:43 PM CDT (8/5)
Length of Visible Light 15h 30m
Length of Day
14h 25m
Waning Crescent, 1% of the Moon is Illuminated
Aug 5
Waning Crescent
Aug 6
New
Aug 14
First Quarter
Aug 20
Full
Aug 28
Last Quarter

Hourly Weather History & Observations

Time (CDT) Temp. Heat Index Dew Point Humidity Pressure Visibility Wind Dir Wind Speed Gust Speed Precip Events Conditions
12:13 AM 68.0 °F - 60.8 °F 78% 29.98 in 10.0 mi SSW 8.1 mph - N/A Thunderstorm Overcast
12:33 AM 69.8 °F - 60.8 °F 73% 29.97 in 10.0 mi SSW 10.4 mph - N/A   Overcast
12:53 AM 69.8 °F - 60.8 °F 73% 29.98 in 10.0 mi SSW 9.2 mph - N/A Thunderstorm Overcast
1:13 AM 69.8 °F - 60.8 °F 73% 29.98 in 10.0 mi SSW 8.1 mph - N/A   Overcast
1:33 AM 68.0 °F - 60.8 °F 78% 29.96 in 10.0 mi SSW 9.2 mph - N/A   Overcast
1:53 AM 69.8 °F - 60.8 °F 73% 29.96 in 10.0 mi SW 9.2 mph - N/A   Overcast
2:13 AM 68.0 °F - 60.8 °F 78% 29.96 in 10.0 mi SW 6.9 mph - N/A   Overcast
2:33 AM 68.0 °F - 62.6 °F 83% 29.95 in 10.0 mi SW 6.9 mph - N/A   Overcast
2:53 AM 68.0 °F - 62.6 °F 83% 29.94 in 10.0 mi SW 9.2 mph - N/A Rain Light Rain
3:13 AM 68.0 °F - 62.6 °F 83% 29.94 in 10.0 mi SW 8.1 mph - N/A Rain Rain
3:33 AM 68.0 °F - 64.4 °F 88% 29.94 in 10.0 mi WSW 5.8 mph - N/A   Overcast
3:53 AM 68.0 °F - 64.4 °F 88% 29.93 in 10.0 mi WSW 5.8 mph - N/A   Overcast
4:13 AM 68.0 °F - 64.4 °F 88% 29.93 in 10.0 mi SW 5.8 mph - N/A   Overcast
4:33 AM 68.0 °F - 64.4 °F 88% 29.92 in 10.0 mi SW 8.1 mph - N/A   Overcast
4:53 AM 68.0 °F - 64.4 °F 88% 29.92 in 10.0 mi SW 6.9 mph - N/A   Overcast
5:13 AM 68.0 °F - 64.4 °F 88% 29.92 in 10.0 mi WSW 4.6 mph - N/A   Overcast
5:33 AM 68.0 °F - 64.4 °F 88% 29.92 in 10.0 mi WSW 3.5 mph - N/A   Overcast
5:53 AM 68.0 °F - 64.4 °F 88% 29.92 in 10.0 mi Calm Calm - N/A   Overcast
6:13 AM 68.0 °F - 64.4 °F 88% 29.91 in 10.0 mi WSW 3.5 mph - N/A   Overcast
6:33 AM 68.0 °F - 64.4 °F 88% 29.91 in 7.0 mi Calm Calm - N/A   Overcast
6:53 AM 68.0 °F - 64.4 °F 88% 29.91 in 5.0 mi WSW 6.9 mph - N/A   Overcast
7:13 AM 68.0 °F - 66.2 °F 94% 29.91 in 4.0 mi WSW 6.9 mph - N/A   Overcast
7:33 AM 68.0 °F - 66.2 °F 94% 29.94 in 1.5 mi West 10.4 mph - N/A   Overcast
7:53 AM 68.0 °F - 66.2 °F 94% 29.93 in 0.8 mi West 8.1 mph - N/A   Overcast
8:13 AM 68.0 °F - 66.2 °F 94% 29.92 in 1.5 mi WNW 5.8 mph - N/A   Overcast
8:33 AM 68.0 °F - 66.2 °F 94% 29.92 in 3.0 mi WNW 4.6 mph - N/A   Overcast
8:53 AM 69.8 °F - 66.2 °F 88% 29.93 in 4.0 mi WNW 4.6 mph - N/A   Overcast
9:13 AM 69.8 °F - 66.2 °F 88% 29.93 in 5.0 mi WNW 4.6 mph - N/A   Overcast
9:33 AM 71.6 °F - 66.2 °F 83% 29.91 in 10.0 mi WNW 4.6 mph - N/A   Overcast
9:53 AM 71.6 °F - 66.2 °F 83% 29.90 in 10.0 mi NW 4.6 mph - N/A   Overcast
10:13 AM 71.6 °F - 66.2 °F 83% 29.90 in 10.0 mi North 3.5 mph - N/A   Overcast
10:33 AM 71.6 °F - 66.2 °F 83% 29.91 in 10.0 mi North 3.5 mph - N/A   Overcast
10:53 AM 73.4 °F - 66.2 °F 78% 29.90 in 10.0 mi NE 5.8 mph - N/A   Overcast
11:13 AM 73.4 °F - 64.4 °F 73% 29.91 in 10.0 mi NE 3.5 mph - N/A   Scattered Clouds
11:33 AM 73.4 °F - 66.2 °F 78% 29.91 in 10.0 mi NE 5.8 mph - N/A   Scattered Clouds
11:53 AM 73.4 °F - 64.4 °F 73% 29.91 in 10.0 mi NNE 4.6 mph - N/A   Scattered Clouds
12:13 PM 75.2 °F - 64.4 °F 69% 29.91 in 10.0 mi Calm Calm - N/A   Scattered Clouds
12:33 PM 77.0 °F - 64.4 °F 65% 29.90 in 10.0 mi NNW 3.5 mph - N/A   Scattered Clouds
12:53 PM 77.0 °F - 64.4 °F 65% 29.91 in 10.0 mi Calm Calm - N/A   Scattered Clouds
1:13 PM 78.8 °F - 66.2 °F 65% 29.91 in 10.0 mi West 5.8 mph - N/A   Scattered Clouds
1:33 PM 78.8 °F - 64.4 °F 61% 29.91 in 10.0 mi West 6.9 mph - N/A   Scattered Clouds
1:53 PM 78.8 °F - 62.6 °F 57% 29.91 in 10.0 mi WNW 4.6 mph - N/A   Scattered Clouds
2:13 PM 80.6 °F 81.5 °F 60.8 °F 51% 29.91 in 10.0 mi NW 4.6 mph - N/A   Scattered Clouds
2:33 PM 80.6 °F 81.5 °F 60.8 °F 51% 29.91 in 10.0 mi NW 6.9 mph - N/A   Scattered Clouds
2:53 PM 80.6 °F 81.5 °F 60.8 °F 51% 29.91 in 10.0 mi WNW 5.8 mph - N/A   Scattered Clouds
3:13 PM 80.6 °F 80.8 °F 57.2 °F 45% 29.90 in 10.0 mi West 9.2 mph - N/A   Scattered Clouds
3:33 PM 80.6 °F 80.8 °F 57.2 °F 45% 29.90 in 10.0 mi NW 9.2 mph - N/A   Clear
3:53 PM 80.6 °F 80.5 °F 55.4 °F 42% 29.90 in 10.0 mi WNW 6.9 mph - N/A   Clear
4:13 PM 80.6 °F 81.5 °F 60.8 °F 51% 29.90 in 10.0 mi NW 10.4 mph - N/A   Scattered Clouds
4:33 PM 82.4 °F 82.0 °F 57.2 °F 42% 29.90 in 10.0 mi NW 8.1 mph 17.3 mph N/A   Clear
4:53 PM 80.6 °F 80.8 °F 57.2 °F 45% 29.89 in 10.0 mi NW 11.5 mph 16.1 mph N/A   Clear
5:13 PM 82.4 °F 82.5 °F 59.0 °F 45% 29.89 in 10.0 mi WNW 9.2 mph - N/A   Clear
5:33 PM 80.6 °F 80.8 °F 57.2 °F 45% 29.89 in 10.0 mi NW 9.2 mph - N/A   Clear
5:53 PM 80.6 °F 80.8 °F 57.2 °F 45% 29.89 in 10.0 mi NW 6.9 mph - N/A   Clear
6:13 PM 80.6 °F 80.5 °F 55.4 °F 42% 29.88 in 10.0 mi NW 12.7 mph - N/A   Clear
6:33 PM 80.6 °F 80.8 °F 57.2 °F 45% 29.88 in 10.0 mi NNW 9.2 mph - N/A   Clear
6:53 PM 78.8 °F - 59.0 °F 51% 29.88 in 10.0 mi NW 6.9 mph - N/A   Clear
7:13 PM 80.6 °F 81.1 °F 59.0 °F 48% 29.88 in 10.0 mi NW 6.9 mph - N/A   Scattered Clouds
7:33 PM 78.8 °F - 60.8 °F 54% 29.88 in 10.0 mi NW 5.8 mph - N/A   Scattered Clouds
7:53 PM 78.8 °F - 60.8 °F 54% 29.88 in 10.0 mi NNW 8.1 mph - N/A   Scattered Clouds
8:13 PM 77.0 °F - 62.6 °F 61% 29.88 in 10.0 mi NNW 8.1 mph - N/A   Clear
8:33 PM 75.2 °F - 60.8 °F 61% 29.88 in 10.0 mi NNW 6.9 mph - N/A   Clear
8:53 PM 73.4 °F - 59.0 °F 61% 29.89 in 10.0 mi NNW 5.8 mph - N/A   Clear
9:13 PM 73.4 °F - 57.2 °F 57% 29.89 in 10.0 mi NNW 4.6 mph - N/A   Clear
9:33 PM 73.4 °F - 55.4 °F 53% 29.89 in 10.0 mi NNW 3.5 mph - N/A   Clear
9:53 PM 71.6 °F - 57.2 °F 60% 29.90 in 10.0 mi NNW 3.5 mph - N/A   Clear
10:13 PM 71.6 °F - 57.2 °F 60% 29.90 in 10.0 mi NNW 3.5 mph - N/A   Clear
10:33 PM 69.8 °F - 57.2 °F 64% 29.90 in 10.0 mi Calm Calm - N/A   Clear
10:53 PM 66.2 °F - 57.2 °F 73% 29.91 in 10.0 mi Calm Calm - N/A   Clear
11:13 PM 66.2 °F - 57.2 °F 73% 29.91 in 10.0 mi Calm Calm - N/A   Clear
11:33 PM 66.2 °F - 57.2 °F 73% 29.91 in 10.0 mi Calm Calm - N/A   Clear
11:53 PM 64.4 °F - 57.2 °F 77% 29.90 in 10.0 mi Calm Calm - N/A   Clear